Change the Weather History Date:

Thursday, September 6, 2012

  Actual Average Record
Temperature  
Mean Temperature 63 °F 57 °F  
Max Temperature 83 °F 73 °F 90 °F (1978)
Min Temperature 43 °F 41 °F 32 °F (1956)
Degree Days  
Heating Degree Days 2 8  
Month to date heating degree days 14 43  
Since 1 July heating degree days 71 215  
Cooling Degree Days 0 0  
Month to date cooling degree days 0 0  
Year to date cooling degree days 211 66  
Growing Degree Days 14 (Base 50)    
Moisture  
Dew Point 22 °F    
Average Humidity 22    
Maximum Humidity 33    
Minimum Humidity 10    
Precipitation  
Precipitation T in 0.04 in 0.51 in (2011)
Month to date precipitation T 0.22  
Year to date precipitation 4.42 8.37  
Sea Level Pressure  
Sea Level Pressure 29.89 in    
Wind  
Wind Speed 15 mph (West)    
Max Wind Speed 31 mph    
Max Gust Speed 46 mph    
Visibility 10 miles    
Events Rain    
T = Trace of Precipitation, MM = Missing Value Source: NWS Daily Summary

Daily Weather History Graph

Daily Weather History Graph

Search for Another Location

Airport or City:

Trip Planner

Search our weather history database for the weather conditions in past years. The results will help you decide how hot, cold, wet, or windy it might be!

Date:

Astronomy

Sep. 06, 2012 Rise Set
Actual Time 6:34 AM MDT 7:26 PM MDT
Civil Twilight 6:06 AM MDT 7:54 PM MDT
Nautical Twilight 5:33 AM MDT 8:27 PM MDT
Astronomical Twilight 4:58 AM MDT 9:02 PM MDT
Moon 10:34 PM MDT (9/6) 12:40 PM MDT (9/6)
Length of Visible Light 13h 47m
Length of Day
12h 51m
Waning Gibbous, 67% of the Moon is Illuminated
Sep 6
Waning Gibbous
Sep 8
Last Quarter
Sep 15
New
Sep 22
First Quarter
Sep 29
Full

Hourly Weather History & Observations

Time (MDT) Temp. Windchill Dew Point Humidity Pressure Visibility Wind Dir Wind Speed Gust Speed Precip Events Conditions
12:53 AM 51.1 °F - 16.0 °F 25% 29.89 in 10.0 mi West 9.2 mph - N/A   Clear
1:53 AM 51.1 °F - 16.0 °F 25% 29.87 in 10.0 mi West 9.2 mph - N/A   Clear
2:53 AM 50.0 °F - 17.1 °F 27% 29.87 in 10.0 mi SW 8.1 mph - N/A   Clear
3:53 AM 45.0 °F 39.7 °F 16.0 °F 31% 29.88 in 10.0 mi WSW 10.4 mph - N/A   Clear
4:53 AM 45.0 °F 39.7 °F 17.1 °F 33% 29.88 in 10.0 mi West 10.4 mph - N/A   Clear
5:53 AM 46.9 °F - 18.0 °F 32% 29.89 in 10.0 mi WSW 10.4 mph - N/A   Clear
6:53 AM 48.0 °F - 18.0 °F 30% 29.91 in 10.0 mi West 8.1 mph - N/A   Clear
7:53 AM 55.0 °F - 19.9 °F 25% 29.93 in 10.0 mi WSW 9.2 mph - N/A   Clear
8:53 AM 66.9 °F - 19.9 °F 17% 29.91 in 10.0 mi WSW 16.1 mph - N/A   Clear
9:53 AM 72.0 °F - 19.9 °F 14% 29.91 in 10.0 mi West 15.0 mph - N/A   Clear
10:53 AM 75.0 °F - 19.9 °F 13% 29.88 in 10.0 mi SW 20.7 mph 24.2 mph N/A   Clear
11:53 AM 77.0 °F - 19.9 °F 12% 29.86 in 10.0 mi SW 15.0 mph 20.7 mph N/A   Partly Cloudy
12:53 PM 81.0 °F - 19.9 °F 10% 29.82 in 10.0 mi WNW 24.2 mph 29.9 mph N/A   Partly Cloudy
1:53 PM 82.0 °F - 19.9 °F 10% 29.81 in 10.0 mi WSW 16.1 mph 33.4 mph N/A   Clear
2:53 PM 78.1 °F - 19.9 °F 11% 29.83 in 10.0 mi WNW 15.0 mph 32.2 mph N/A   Clear
3:53 PM 78.1 °F - 21.9 °F 12% 29.85 in 10.0 mi WSW 21.9 mph 34.5 mph N/A   Clear
4:53 PM 75.0 °F - 24.1 °F 15% 29.86 in 10.0 mi West 25.3 mph 33.4 mph N/A   Clear
5:53 PM 73.9 °F - 25.0 °F 16% 29.86 in 10.0 mi West 16.1 mph 26.5 mph N/A   Partly Cloudy
6:53 PM 73.9 °F - 26.1 °F 17% 29.86 in 10.0 mi WSW 12.7 mph - N/A   Scattered Clouds
7:53 PM 70.0 °F - 28.0 °F 21% 29.85 in 10.0 mi West 10.4 mph - N/A   Scattered Clouds
8:53 PM 66.0 °F - 28.0 °F 24% 29.84 in 10.0 mi WNW 6.9 mph - N/A   Scattered Clouds
9:16 PM 60.8 °F - 28.4 °F 29% 30.20 in 10.0 mi NE 20.7 mph 27.6 mph N/A   Overcast
9:53 PM 60.1 °F - 30.0 °F 32% 29.88 in 10.0 mi NE 15.0 mph - N/A   Overcast
10:53 PM 57.9 °F - 28.9 °F 33% 29.89 in 10.0 mi ENE 24.2 mph 33.4 mph N/A   Overcast
11:53 PM 54.0 °F - 33.1 °F 45% 29.96 in 10.0 mi NE 19.6 mph 24.2 mph 0.00 in Rain Light Rain